sat.trackr.live / text

‹ back to catalog

ICEYE-X72

NORAD 68504 · 2026-067CS

PAYLOAD ACTIVE UNKNOWN

§ Identity

Operator
Country
FIN
Launch date
2026-03-30
Launch site
AFWTR
Launch vehicle
Mass (kg)
RCS (m²)

External: N2YO · Heavens-Above · Gunter

§ Orbital elements

Epoch: 2026-09-20T03:39:48.540960Z

Period
96.08 min
Inclination
97.7705°
Eccentricity
0.0002750
Mean motion
14.98716201 rev/d
Perigee alt
569.0 km
Apogee alt
572.8 km
Semi-major
6,949.0 km
B*
1.6235e-4
RAAN
220.8273°
Arg perigee
51.9518°
Mean anomaly
308.1952°
Rev number
2,593

§ Raw data

ICEYE-X721 68504U 26067CS  26263.15264515  .00001893  00000+0  16235-3 0  99922 68504  97.7705 220.8273 0002750  51.9518 308.1952 14.98716201 25933

JSON: /api/v1/satellites/68504 · /tle

For live sub-satellite position, see the globe view (requires WebGL).

§ Visibility from observer

Set your observer location to see the next 7 days of passes ≥ 10°. The values pass through the URL so the page stays shareable.

No JS? Fill the form by hand. The geolocation button needs JavaScript.